Simultaneous Nadir Overpasses (SNOs) Predictions

Prediction of SNOs between AQUA and GOES-15 Satellite Orbit:

Table of predicted SNOs for the next 14.0 days since TLE Epoch: 8/1/2025
Index Date Time (AQUA) AQUA Lat,Lon GOES-15 Lat,Lon Distance(km) Time Diff (sec)
1 08/03/2025 10:34:25 0.92, 63.39 0.48, 61.43 223.84 80
2 08/03/2025 22:53:32 0.10, 58.78 -0.48, 61.47 306.64 80
3 08/05/2025 22:33:05 -0.98, 63.78 -0.49, 61.51 259.04 80
4 08/06/2025 10:52:21 0.00, 59.13 0.49, 61.48 267.71 80
5 08/08/2025 10:31:53 1.05, 64.14 0.50, 61.52 298.18 80
6 08/08/2025 22:51:00 -0.05, 59.52 -0.49, 61.56 231.67 80
7 08/10/2025 22:30:32 -1.13, 64.54 -0.50, 61.60 333.72 80
8 08/11/2025 10:49:47 0.12, 59.89 0.50, 61.59 193.63 80
9 08/13/2025 10:29:19 1.24, 64.89 0.50, 61.63 372.17 80
10 08/13/2025 22:48:24 -0.19, 60.29 -0.50, 61.66 157.03 80
